Date String (YYYY-MM-DD hh:mm:ss) UTC,Instrument flags,absolute air pressure of the measurement (hPa),sample flow rate (lpm),inlet stack bypass flow (lpm),air temperature of the measurement (°C),ambient temperature measured by the external sensor (°C),aerosol sample conditioner tube jacket temperature (°C),OPC LED temperature (°C),internal box temperature (°C),relative humidity of the measurement (%),span deviation,mass concentration of particles derived from Lorenz-Mie calculation of OPC scattering (μg/m³),mass concentration of particles derived from Lorenz-Mie calculation of OPC scattering (μg/m³),mass concentration of particles derived from Lorenz-Mie calculation of OPC scattering (μg/m³)
DateTimeUTC,F1_M11,P_M11,Q1_M11,Q2_M11,T1_M11,T2_M11,T3_M11,T4_M11,T5_M11,U1_M11,ZSPAN_M11,X2_M11,X0_M11,X1_M11
2023-07-03 07:00:00,SystemResetWarning,0833.4,5.00,000.00,029.4,025.1,000.0,037.7,030.7,22.8,0000.0,0005.12,0012.09,0004.54
2023-07-03 07:01:00,SystemResetWarning,0833.1,5.01,000.00,029.3,025.2,000.0,037.7,030.4,22.9,0000.0,0005.10,0011.31,0004.53
2023-07-03 07:02:00,SystemResetWarning,0833.2,5.01,000.00,029.2,025.5,000.0,037.7,030.3,23.0,0000.0,0005.08,0010.91,0004.52
2023-07-03 07:03:00,SystemResetWarning,0833.1,4.99,000.00,029.2,026.0,000.0,037.7,030.4,23.2,0000.0,0005.06,0011.47,0004.53
2023-07-03 07:04:00,SystemResetWarning,0832.9,5.00,000.00,029.1,026.4,000.0,037.7,030.5,23.4,0000.0,0005.11,0011.31,0004.53
2023-07-03 07:05:00,SystemResetWarning,0833.0,5.01,000.00,029.1,026.7,000.0,037.7,030.6,23.3,-000.5,0005.08,0011.22,0004.53
2023-07-03 07:06:00,SystemResetWarning,0833.0,4.99,000.00,029.2,027.0,000.0,037.7,030.6,23.5,-000.3,0005.03,0010.97,0004.52
2023-07-03 07:07:00,SystemResetWarning,0832.8,4.99,000.00,029.2,027.2,000.0,037.7,030.7,23.2,-000.5,0004.96,0010.57,0004.51
2023-07-03 07:08:00,SystemResetWarning,0832.8,5.01,000.00,029.2,027.4,000.0,037.7,030.7,23.0,0000.0,0004.92,0010.18,0004.52
2023-07-03 07:09:00,SystemResetWarning,0832.8,5.00,000.00,029.2,027.6,000.0,037.7,030.8,23.1,0000.0,0004.94,0010.08,0004.52
2023-07-03 07:10:00,SystemResetWarning,0832.8,4.98,000.00,029.2,027.7,000.0,037.8,030.8,23.1,0000.0,0004.94,0009.42,0004.52
2023-07-03 07:11:00,SystemResetWarning,0832.7,5.02,000.00,029.3,027.8,000.0,037.8,030.8,22.9,0000.0,0004.91,0009.69,0004.52
2023-07-03 07:12:00,SystemResetWarning,0832.7,5.00,000.00,029.3,027.9,000.0,037.8,030.9,22.9,0000.0,0004.92,0009.62,0004.53
2023-07-03 07:13:00,SystemResetWarning,0832.8,4.99,000.00,029.3,028.0,000.0,037.8,030.9,22.9,0000.3,0004.93,0009.48,0004.52
2023-07-03 07:14:00,SystemResetWarning,0832.8,4.99,000.00,029.3,028.1,000.0,037.8,030.9,22.8,0000.0,0004.91,0008.77,0004.51
2023-07-03 07:15:00,SystemResetWarning,0832.7,5.01,000.00,029.4,028.1,000.0,037.8,031.0,22.8,0000.0,0004.87,0008.66,0004.51
2023-07-03 07:16:00,SystemResetWarning,0832.7,5.01,000.00,029.4,028.2,000.0,037.8,031.0,22.8,0000.0,0004.88,0008.61,0004.51
2023-07-03 07:17:00,SystemResetWarning,0832.7,5.00,000.00,029.4,028.2,000.0,037.9,031.0,22.8,0000.0,0004.92,0008.75,0004.52
2023-07-03 07:18:00,SystemResetWarning,0832.7,5.00,000.00,029.5,028.3,000.0,037.9,031.1,22.9,0000.0,0004.93,0008.79,0004.51
2023-07-03 07:19:00,SystemResetWarning,0832.7,5.00,000.00,029.5,028.3,000.0,037.9,031.1,22.8,0000.0,0004.94,0008.85,0004.51
2023-07-03 07:20:00,SystemResetWarning,0832.7,5.00,000.00,029.5,028.4,000.0,037.9,031.1,22.7,0000.0,0004.92,0009.96,0004.50
2023-07-03 07:21:00,SystemResetWarning,0832.7,4.99,000.00,029.5,028.4,000.0,038.0,031.1,22.6,0000.0,0004.90,0010.38,0004.49
2023-07-03 07:22:00,SystemResetWarning,0832.7,5.00,000.00,029.5,028.4,000.0,038.0,031.2,22.5,0000.0,0004.90,0009.69,0004.49
2023-07-03 07:23:00,SystemResetWarning,0832.7,5.01,000.00,029.6,028.4,000.0,038.0,031.2,22.6,0000.0,0004.91,0010.08,0004.49
2023-07-03 07:24:00,SystemResetWarning,0832.8,5.00,000.00,029.6,028.5,000.0,038.0,031.2,22.6,0000.0,0004.92,0010.10,0004.50
2023-07-03 07:25:00,SystemResetWarning,0832.7,5.01,000.00,029.6,028.5,000.0,038.1,031.2,22.5,0000.0,0004.94,0010.14,0004.51
2023-07-03 07:26:00,SystemResetWarning,0832.7,4.99,000.00,029.6,027.8,000.0,038.0,031.2,22.6,0000.0,0004.95,0010.14,0004.51
2023-07-03 07:27:00,SystemResetWarning,0832.7,5.00,000.00,029.6,025.8,000.0,037.9,031.0,22.6,0000.0,0004.98,0010.23,0004.51
2023-07-03 07:28:00,SystemResetWarning,0832.6,5.01,000.00,029.5,025.1,000.0,037.8,030.7,22.7,0000.0,0004.97,0010.06,0004.52
2023-07-03 07:29:00,SystemResetWarning,0832.6,5.01,000.00,029.3,025.3,000.0,037.8,030.4,22.9,0000.0,0004.97,0010.04,0004.52
2023-07-03 07:30:00,SystemResetWarning,0832.6,5.01,000.00,029.3,025.7,000.0,037.8,030.4,23.0,0000.0,0004.97,0010.00,0004.53
2023-07-03 07:31:00,SystemResetWarning,0832.6,4.99,000.00,029.2,026.1,000.0,037.8,030.5,22.9,0000.0,0004.99,0009.12,0004.53
2023-07-03 07:32:00,SystemResetWarning,0832.7,4.98,000.00,029.2,026.5,000.0,037.8,030.6,23.0,0000.0,0004.98,0008.49,0004.53
2023-07-03 07:33:00,SystemResetWarning,0832.6,5.00,000.00,029.2,026.8,000.0,037.8,030.6,23.0,0000.0,0004.98,0008.48,0004.53
2023-07-03 07:34:00,SystemResetWarning,0832.7,5.02,000.00,029.2,027.0,000.0,037.8,030.7,22.9,0000.0,0004.97,0008.04,0004.53
2023-07-03 07:35:00,SystemResetWarning,0832.6,4.99,000.00,029.2,027.3,000.0,037.8,030.7,22.9,0000.0,0004.97,0008.06,0004.54
2023-07-03 07:36:00,SystemResetWarning,0832.6,4.99,000.00,029.2,027.5,000.0,037.8,030.8,22.9,0000.0,0004.98,0008.09,0004.54
2023-07-03 07:37:00,SystemResetWarning,0832.6,5.01,000.00,029.3,027.6,000.0,037.8,030.8,22.9,0000.0,0004.98,0008.18,0004.54
2023-07-03 07:38:00,SystemResetWarning,0832.6,5.01,000.00,029.3,027.7,000.0,037.8,030.8,22.8,0000.0,0004.96,0008.15,0004.55
2023-07-03 07:39:00,SystemResetWarning,0832.5,4.98,000.00,029.3,027.8,000.0,037.8,030.9,22.8,0000.0,0004.95,0008.09,0004.55
2023-07-03 07:40:00,SystemResetWarning,0832.5,5.02,000.00,029.3,027.9,000.0,037.9,030.9,22.8,0000.0,0004.95,0008.14,0004.55
2023-07-03 07:41:00,SystemResetWarning,0832.5,5.01,000.00,029.3,028.0,000.0,037.9,030.9,22.7,0000.0,0004.99,0008.17,0004.55
2023-07-03 07:42:00,SystemResetWarning,0832.5,4.99,000.00,029.4,028.1,000.0,037.9,031.0,22.8,0000.0,0005.06,0008.40,0004.55
2023-07-03 07:43:00,SystemResetWarning,0832.5,5.00,000.00,029.4,028.1,000.0,037.9,031.0,22.6,0000.0,0005.05,0008.38,0004.54
2023-07-03 07:44:00,SystemResetWarning,0832.5,4.99,000.00,029.4,028.2,000.0,037.9,031.0,22.6,0000.0,0005.06,0008.48,0004.54
2023-07-03 07:45:00,SystemResetWarning,0832.6,4.99,000.00,029.4,028.2,000.0,037.9,031.0,22.4,0000.0,0005.07,0008.76,0004.54
2023-07-03 07:46:00,SystemResetWarning,0832.5,4.99,000.00,029.5,028.3,000.0,037.9,031.1,22.4,0000.0,0005.08,0008.83,0004.53
2023-07-03 07:47:00,SystemResetWarning,0832.5,5.00,000.00,029.5,028.3,000.0,038.0,031.1,22.2,0000.0,0005.05,0008.81,0004.52
2023-07-03 07:48:00,SystemResetWarning,0832.5,5.00,000.00,029.5,028.3,000.0,038.0,031.1,22.2,0000.0,0005.03,0008.80,0004.50
2023-07-03 07:49:00,SystemResetWarning,0832.5,5.01,000.00,029.5,028.3,000.0,038.0,031.1,22.2,0000.0,0005.02,0008.69,0004.49
2023-07-03 07:50:00,SystemResetWarning,0832.5,5.00,000.00,029.6,028.4,000.0,038.0,031.1,22.2,0000.0,0005.00,0008.65,0004.48
2023-07-03 07:51:00,SystemResetWarning,0832.5,5.00,000.00,029.6,028.4,000.0,038.0,031.1,22.2,0000.0,0004.99,0008.72,0004.47
2023-07-03 07:52:00,SystemResetWarning,0832.5,5.01,000.00,029.6,028.4,000.0,038.1,031.2,22.3,0000.0,0004.94,0008.63,0004.45
2023-07-03 07:53:00,SystemResetWarning,0832.5,5.00,000.00,029.6,028.4,000.0,038.1,031.2,22.2,0000.0,0004.85,0008.54,0004.43
2023-07-03 07:54:00,SystemResetWarning,0832.5,5.00,000.00,029.6,028.4,000.0,038.1,031.2,22.1,0000.0,0004.82,0008.66,0004.42
2023-07-03 07:55:00,SystemResetWarning,0832.5,5.00,000.00,029.7,028.5,000.0,038.1,031.2,22.1,0000.0,0004.81,0008.68,0004.42
2023-07-03 07:56:00,SystemResetWarning,0832.4,5.00,000.00,029.7,028.5,000.0,038.1,031.2,22.1,0000.0,0004.82,0008.62,0004.42
2023-07-03 07:57:00,SystemResetWarning,0832.4,4.99,000.00,029.7,028.5,000.0,038.2,031.3,22.0,0000.0,0004.79,0008.66,0004.40
2023-07-03 07:58:00,SystemResetWarning,0832.4,4.99,000.00,029.7,027.8,000.0,038.1,031.2,21.9,0000.0,0004.76,0009.74,0004.39
2023-07-03 07:59:00,SystemResetWarning,0832.3,5.00,000.00,029.7,025.8,000.0,038.0,031.1,22.0,0000.0,0004.74,0009.86,0004.38
